VTD452A UWLS-UWLS

Flight info

Callsign VTD452A
Flight time 0h 5m
Altitude 1900
Route RA/A019
Aircraft C172/L-SDFGY/C

Departure

Time 2026-04-30 19:06
Airport Soldatskaya Tashla Airfield (UWLS)

Arrival

Time 2026-04-30 19:12
Airport Soldatskaya Tashla Airfield (UWLS)
Time Latitude Longitude Altitude Speed Heading
2026-04-30 18:47 54.01668 48.30870 869 ft 0 kts 53°
2026-04-30 19:01 54.01668 48.30871 869 ft 0 kts 53°
2026-04-30 19:01 54.01681 48.30875 869 ft 4 kts 314°
2026-04-30 19:02 54.01706 48.30796 870 ft 5 kts 232°
2026-04-30 19:02 54.01700 48.30784 871 ft 0 kts 234°
2026-04-30 19:03 54.01666 48.30703 873 ft 7 kts 228°
2026-04-30 19:04 54.01498 48.30877 870 ft 21 kts 143°
2026-04-30 19:04 54.01292 48.31097 873 ft 9 kts 146°
2026-04-30 19:05 54.01304 48.31114 873 ft 0 kts 323°
2026-04-30 19:05 54.01304 48.31113 873 ft 0 kts 322°
2026-04-30 19:06 54.01638 48.30720 990 ft 58 kts 326°
2026-04-30 19:06 54.02000 48.30324 1201 ft 63 kts 316°
2026-04-30 19:06 54.02766 48.29414 1560 ft 72 kts 322°
2026-04-30 19:07 54.03568 48.28506 1869 ft 71 kts 321°
2026-04-30 19:07 54.04095 48.28541 1894 ft 93 kts 31°
2026-04-30 19:08 54.04888 48.30506 1946 ft 104 kts 57°
2026-04-30 19:08 54.04815 48.32827 1859 ft 114 kts 139°
2026-04-30 19:08 54.04189 48.33570 1867 ft 108 kts 149°
2026-04-30 19:09 54.02959 48.34909 1904 ft 102 kts 147°
2026-04-30 19:09 54.02360 48.35595 1914 ft 104 kts 149°
2026-04-30 19:09 54.01754 48.36253 1947 ft 103 kts 149°
2026-04-30 19:10 54.00452 48.36958 1908 ft 103 kts 214°
2026-04-30 19:10 53.99565 48.35104 1543 ft 95 kts 237°
2026-04-30 19:11 53.99265 48.34193 1465 ft 82 kts 257°
2026-04-30 19:11 53.99902 48.32822 1283 ft 75 kts 324°
2026-04-30 19:11 54.00326 48.32319 1179 ft 74 kts 322°
2026-04-30 19:12 54.00727 48.31814 1048 ft 68 kts 322°
2026-04-30 19:12 54.01093 48.31381 936 ft 61 kts 322°
2026-04-30 19:12 54.01411 48.30981 870 ft 48 kts 321°
2026-04-30 19:13 54.02106 48.30208 1167 ft 65 kts 320°
2026-04-30 19:13 54.02891 48.29330 1545 ft 72 kts 323°
2026-04-30 19:13 54.03345 48.28942 1699 ft 79 kts 346°
2026-04-30 19:14 54.03856 48.29390 1786 ft 96 kts 57°
2026-04-30 19:14 54.04195 48.30360 1906 ft 97 kts 57°
2026-04-30 19:14 54.04550 48.31416 1884 ft 107 kts 59°
2026-04-30 19:14 54.04857 48.32618 1865 ft 114 kts 84°
2026-04-30 19:15 54.04509 48.33747 1857 ft 110 kts 149°
2026-04-30 19:15 54.03232 48.34940 1912 ft 101 kts 155°
2026-04-30 19:15 54.02601 48.35508 1899 ft 103 kts 154°
2026-04-30 19:16 54.01963 48.36134 1867 ft 106 kts 152°
2026-04-30 19:16 54.01321 48.36753 1872 ft 105 kts 155°
2026-04-30 19:16 54.00230 48.35977 1768 ft 95 kts 235°
2026-04-30 19:17 53.99832 48.35084 1621 ft 95 kts 235°
2026-04-30 19:17 53.99562 48.33270 1475 ft 82 kts 308°
2026-04-30 19:17 54.00044 48.32667 1283 ft 86 kts 325°
2026-04-30 19:18 54.00773 48.31778 1058 ft 67 kts 323°
2026-04-30 19:18 54.01245 48.31188 882 ft 57 kts 322°
2026-04-30 19:18 54.01516 48.30853 871 ft 41 kts 322°
2026-04-30 19:19 54.01840 48.30482 1001 ft 61 kts 326°
2026-04-30 19:19 54.02211 48.30093 1221 ft 66 kts 325°
2026-04-30 19:19 54.03058 48.29142 1562 ft 80 kts 321°
2026-04-30 19:20 54.03587 48.28891 1739 ft 89 kts 14°
2026-04-30 19:20 54.04026 48.29753 1804 ft 107 kts 54°
2026-04-30 19:20 54.04713 48.31977 1986 ft 109 kts 80°
2026-04-30 19:21 54.04367 48.33106 1948 ft 114 kts 146°
2026-04-30 19:21 54.03065 48.34576 1938 ft 112 kts 149°
2026-04-30 19:22 54.01741 48.35980 1868 ft 112 kts 152°
2026-04-30 19:22 54.00087 48.35457 1749 ft 84 kts 246°
2026-04-30 19:23 54.00318 48.32774 1243 ft 77 kts 295°
2026-04-30 19:24 54.00962 48.31535 993 ft 61 kts 322°
2026-04-30 19:24 54.01295 48.31124 874 ft 54 kts 321°
2026-04-30 19:24 54.01658 48.30691 873 ft 7 kts 22°
2026-04-30 19:25 54.01722 48.30839 869 ft 1 kts 57°
2026-04-30 19:26 54.01724 48.30846 869 ft 0 kts 55°